Weather History for KEAT - October, 2011

Change the Weather History Date:

Thursday, October 6, 2011

  Actual Average Record
Temperature  
Mean Temperature 47 °F 50 °F  
Max Temperature 49 °F 63 °F 82 °F (1980)
Min Temperature 45 °F 36 °F 23 °F (2012)
Degree Days  
Heating Degree Days 18 15  
Month to date heating degree days 65 86  
Since 1 July heating degree days 345 442  
Cooling Degree Days 0 0  
Month to date cooling degree days 0 0  
Year to date cooling degree days 161 249  
Growing Degree Days 7 (Base 50)    
Moisture  
Dew Point 41 °F    
Average Humidity 59    
Maximum Humidity 80    
Minimum Humidity 40    
Precipitation  
Precipitation 0.09 in 0.02 in 0.65 in (1985)
Month to date precipitation 0.41 0.15  
Year to date precipitation 13.08 11.20  
Snow  
Snow 0.00 in 0.00 in - ()
Month to date snowfall 0.0 0.0  
Since 1 July snowfall 0.0 0.0  
Since 1 September snowfall 0.0 0.0  
Snow Depth 0.00 in    
Sea Level Pressure  
Sea Level Pressure 29.77 in    
Wind  
Wind Speed 11 mph (WNW)    
Max Wind Speed 20 mph    
Max Gust Speed 30 mph    
Visibility 10 miles    
Events Rain    
T = Trace of Precipitation, MM = Missing Value Source: NWS Daily Summary

Daily Weather History Graph

Daily Weather History Graph

Search for Another Location

Airport or City:

Trip Planner

Search our weather history database for the weather conditions in past years. The results will help you decide how hot, cold, wet, or windy it might be!

Date:

Astronomy

Oct. 06, 2011 Rise Set
Actual Time 7:06 AM PDT 6:30 PM PDT
Civil Twilight 6:35 AM PDT 7:01 PM PDT
Nautical Twilight 6:00 AM PDT 7:36 PM PDT
Astronomical Twilight 5:24 AM PDT 8:12 PM PDT
Moon 4:03 PM PDT (10/6) 1:40 AM PDT (10/6)
Length of Visible Light 12h 25m
Length of Day
11h 24m
Waxing Gibbous, 76% of the Moon is Illuminated
Oct 6
Waxing Gibbous
Oct 11
Full
Oct 19
Last Quarter
Oct 26
New
Nov 2
First Quarter

Hourly Weather History & Observations

Time (PDT) Temp. Dew Point Humidity Pressure Visibility Wind Dir Wind Speed Gust Speed Precip Events Conditions
12:55 AM 50.0 °F 43.0 °F 77% 29.65 in 10.0 mi NW 5.8 mph - N/A   Overcast
1:55 AM 50.0 °F 42.1 °F 74% 29.67 in 10.0 mi NW 8.1 mph - N/A   Overcast
2:55 AM 50.0 °F 43.0 °F 77% 29.69 in 10.0 mi NW 6.9 mph - 0.01 in Rain Light Rain
3:55 AM 48.9 °F 43.0 °F 80% 29.68 in 10.0 mi NW 8.1 mph - 0.00 in   Overcast
4:55 AM 50.0 °F 43.0 °F 77% 29.68 in 10.0 mi WNW 10.4 mph - N/A   Overcast
5:55 AM 50.0 °F 42.1 °F 74% 29.70 in 10.0 mi NW 11.5 mph - 0.01 in   Overcast
6:55 AM 52.0 °F 41.0 °F 66% 29.72 in 10.0 mi WNW 11.5 mph - N/A   Overcast
7:55 AM 52.0 °F 39.9 °F 63% 29.75 in 10.0 mi West 6.9 mph - N/A   Overcast
8:55 AM 52.0 °F 42.1 °F 69% 29.77 in 10.0 mi West 5.8 mph - N/A   Overcast
9:55 AM 55.0 °F 41.0 °F 59% 29.78 in 10.0 mi WNW 15.0 mph - N/A   Overcast
10:55 AM 55.9 °F 41.0 °F 57% 29.78 in 10.0 mi WNW 16.1 mph - N/A   Overcast
11:55 AM 59.0 °F 39.9 °F 49% 29.78 in 10.0 mi WNW 17.3 mph 25.3 mph N/A   Clear
12:55 PM 63.0 °F 42.1 °F 46% 29.78 in 10.0 mi WNW 18.4 mph 26.5 mph N/A   Partly Cloudy
1:55 PM 64.9 °F 41.0 °F 42% 29.77 in 10.0 mi WNW 19.6 mph 26.5 mph N/A   Clear
2:55 PM 66.0 °F 41.0 °F 40% 29.78 in 10.0 mi WNW 17.3 mph - N/A   Partly Cloudy
4:55 PM 64.9 °F 39.9 °F 40% 29.81 in 10.0 mi WNW 19.6 mph 29.9 mph N/A   Overcast
5:55 PM 62.1 °F 39.0 °F 43% 29.82 in 10.0 mi WNW 16.1 mph 28.8 mph N/A   Clear
6:55 PM 59.0 °F 39.9 °F 49% 29.86 in 10.0 mi WNW 19.6 mph 26.5 mph N/A   Clear
7:55 PM 57.0 °F 39.9 °F 53% 29.88 in 10.0 mi West 15.0 mph - N/A   Clear
8:55 PM 55.9 °F 39.9 °F 55% 29.89 in 10.0 mi WNW 13.8 mph 21.9 mph N/A   Clear
9:55 PM 55.9 °F 39.0 °F 53% 29.89 in 10.0 mi WNW 13.8 mph - N/A   Clear
11:55 PM 54.0 °F 39.0 °F 57% 29.88 in 10.0 mi WNW 15.0 mph - N/A   Clear